SCP
0 0 0 0 0 0 0 0 0 0 0 0 0 -0 -0 -0 0 0 0 -0 -0 -0 0 0 -0 -0 -0 -0 -0 -0 -0 -0 -0 -0 -0 -0 -0 -0 -0 -0 -0 -0 0 0 0 -0 -0 -0 -0
0 0 0 0 0 0 0 0 0 0 0 0 0 0 -0 -0 -0 0 -0 0 -0 -0 0 0 0 -0 -0 -0 -0 -0 -0 -0 -0 -0 -0 -0 -0 -0 -0 -0 -0 0 0 0 0 0 0 -0 0
0 0 0 0 0 0 0 0 0 0 0 0 0 -0 0 -0 -0 -0 0 -0 -0 -0 -0 -0 0 -0 -0 -0 -0 -0 -0 -0 -0 -0 -0 -0 -0 -0 -0 -0 -0 0 0 0 -0 0 0 0 0
0 0 0 0 0 0 0 0 0 0 0 0 0 0 0 -0 0 -0 0 -0 -0 -0 -0 -0 -0 -0 -0 -0 -0 -0 -0 -0 -0 -0 -0 -0 -0 -0 -0 -0 -0 0 0 0 0 0 0 0 0
0 0 0 0 0 0 0 0 0 0 0 0 0 0 0 -0 -0 -0 -0 0 -0 -0 -0 -0 -0 -0 -0 -0 -0 -0 -0 -0 -0 -0 -0 -0 -0 -0 -0 -0 -0 0 0 0 0 0 0 0 0
0 0 0 0 0 0 0 0 0 0 0 0 0 0 0 -0 -0 -0 -0 0 -0 -0 0 -0 -0 -0 -0 -0 -0 -0 -0 -0 -0 -0 -0 -0 -0 -0 -0 -0 -0 0 0 0 0 0 0 0 0
0 0 0 0 0 0 0 0 0 0 0 0 0 0 0 -0 -0 -0 -0 -0 -0 -0 -0 0 0 0 0 -0 -0 -0 -0 -0 -0 -0 -0 -0 -0 -0 -0 -0 -0 0 0 0 0 0 0 0 0
0 0 0 0 0 0 0 0 0 0 0 0 0 0 0 0 0 0 -0 -0 -0 -0 -0 0 0 0 0 -0 0 -0 -0 -0 -0 -0 -0 -0 -0 -0 -0 0 0 0 0 0 0 0 0 0 0
0 0 0 0 0 0 0 0 0 0 0 0 0 0 0 0 0 0 0 -0 0 0 0 -0 -0 0 0 0 0 -0 0 -0 -0 -0 -0 -0 -0 -0 -0 0 0 0 0 0 0 0 0 0 0
0 0 0 0 0 0 0 0 0 0 0 0 0 0 0 0 0 0 0 0 0 0 0 0 0 0 0 0 0 0 0 0 0 -0 -0 -0 -0 0 0 0 0 0 0 0 0 0 0 0 0
0 0 0 0 0 0 0 0 0 0 0 0 0 0 0 0 0 0 0 0 0 0 0 0 0 0 0 0 0 0 0 0 0 0 0 0 0 0 0 0 0 0 0 0 0 0 0 0 0
0 0 0 0 0 0 0 0 0 0 0 0 0 0 0 0 0 0 0 0 0 0 0 0 0 0 0 0 0 0 0 0 0 0 0 0 0 0 0 0 0 0 0 0 0 0 0 0 0
0 0 0 0 0 0 0 0 0 0 0 0 0 0 0 0 0 0 0 0 0 0 0 0 0 0 0 0 0 0 0 0 0 0 0 0 0 0 0 0 0 0 0 0 0 0 0 0 0
0 0 0 0 0 0 0 0 0 0 0 0 0 0 0 0 0 0 0 0 0 0 0 0 0 0 0 0 0 0 0 0 0 0 0 0 0 0 0 0 0 0 0 0 0 0 0 0 0
0 0 0 0 0 0 0 0 0 0 0 0 0 0 0 0 0 0 0 0 0 0 0 0 0 0 0 0 0 0 0 1 0 0 0 0 0 0 0 0 0 0 0 0 0 0 0 0 0
0 0 0 0 0 0 0 0 0 0 0 0 0 0 0 0 0 0 0 0 0 0 0 0 0 0 0 0 0 0 0 0 1 0 1 0 0 0 0 0 0 0 0 0 0 0 0 0 0
0 0 0 0 0 0 0 0 0 0 0 0 0 0 0 0 0 0 0 0 0 0 0 0 0 0 0 0 0 0 0 0 1 1 1 0 0 0 0 0 0 0 0 0 0 0 0 0 0
0 0 0 0 0 0 0 0 0 0 0 0 0 0 0 0 0 0 0 0 0 0 0 0 0 0 0 0 0 0 0 0 0 0 0 0 0 0 1 0 0 0 0 0 0 0 0 0 0
0 0 0 0 0 0 0 0 0 0 0 0 0 0 0 0 0 0 0 0 0 0 0 0 0 0 0 0 0 0 0 0 0 0 0 0 0 0 1 1 0 0 0 0 0 0 0 0 0
0 0 0 0 0 0 0 0 0 0 0 0 0 0 0 0 0 0 0 0 0 0 0 0 0 0 0 0 0 0 0 0 0 0 0 0 0 0 0 0 0 0 0 0 0 0 0 0 0
0 0 0 0 0 0 0 0 0 0 0 0 0 0 0 0 0 0 0 0 0 0 0 0 0 0 0 0 0 0 0 0 0 0 0 0 0 0 0 0 0 0 0 0 0 0 0 1 0
0 0 0 0 0 0 0 0 0 0 0 0 0 0 0 0 0 0 0 0 0 0 0 0 0 0 0 0 0 0 0 0 0 0 0 0 0 0 0 0 0 0 0 0 0 0 0 1 0
0 -0 0 0 0 0 0 0 0 0 0 0 0 0 0 0 0 0 0 0 -0 -0 -0 -0 -0 0 0 0 0 0 0 0 0 0 0 0 0 0 0 0 0 0 0 0 0 0 0 0 0
-0 0 0 0 0 0 0 0 0 0 0 0 0 0 0 0 0 0 0 0 0 0 0 -0 -0 0 0 0 0 0 0 0 0 0 0 0 0 0 0 0 0 0 0 0 0 0 0 0 0
0 0 0 0 0 0 0 0 0 0 0 0 0 0 0 0 0 0 0 0 0 0 0 0 -0 0 0 0 0 0 0 0 0 0 0 0 0 0 0 0 0 0 0 0 0 0 0 0 0
0 0 0 0 0 0 0 0 0 0 0 0 0 0 -0 -0 -0 -0 -0 0 -0 -0 -0 -0 -0 -0 -0 -0 -0 0 0 0 0 0 0 0 0 0 0 0 0 0 0 0 0 0 0 0 0
0 0 0 0 0 0 0 0 0 0 0 0 0 -0 -0 -0 -0 -0 -0 0 0 -0 -0 0 0 -0 -0 -0 -0 -0 -0 0 0 0 0 0 0 0 0 0 0 0 0 0 0 0 0 0 0
0 0 0 0 0 0 0 0 0 0 0 0 -0 -0 -0 -0 -0 -0 0 0 0 0 0 0 0 0 0 0 -0 -0 -0 -0 0 0 0 0 0 0 0 0 0 0 0 0 0 0 0 0 0
0 0 0 0 0 0 0 0 0 -0 -0 -0 -0 -0 -0 -0 -0 0 0 0 0 0 0 0 0 0 0 0 0 0 -0 -0 0 0 0 0 0 0 -0 0 0 0 0 0 0 0 0 0 0
0 0 0 0 0 0 0 0 0 0 -0 -0 0 -0 -0 -0 0 0 0 0 0 0 0 0 0 0 0 0 0 0 0 0 0 0 0 0 0 0 0 -0 -0 -0 -0 -0 0 0 0 0 0
Wind_Speed_500mb
11 11 5 4 6 1 5 8 4 15 6 7 12 29 29 24 10 12 20 28 38 36 33 31 31 30 29 31 32 32 32 34 36 31 27 27 27 29 32 32 35 35 30 22 22 22 24 27 29
7 6 1 1 1 9 6 9 12 13 7 5 16 17 28 17 25 11 26 22 39 34 31 27 28 27 25 26 27 31 32 31 31 28 26 27 27 29 30 28 30 31 27 25 23 24 26 28 28
4 6 2 6 5 7 5 16 21 10 22 9 12 28 16 23 18 6 10 26 43 34 26 24 26 24 23 22 22 26 29 29 27 26 26 26 26 26 24 23 26 26 26 26 24 24 23 25 26
1 3 10 9 27 18 9 21 15 7 19 28 22 24 23 44 16 17 22 31 41 33 26 26 24 20 19 19 20 22 24 26 26 27 26 25 23 22 21 21 22 23 24 25 25 24 23 23 22
6 6 8 10 23 13 21 25 27 19 19 34 29 25 22 48 29 15 11 37 35 31 28 26 23 19 16 16 17 19 20 22 25 26 25 21 18 18 20 20 22 22 22 22 24 24 23 22 21
4 7 10 12 16 14 25 39 39 35 32 30 35 28 21 37 39 24 13 35 32 29 26 24 22 19 16 13 13 14 16 19 22 23 21 18 15 17 19 20 21 21 21 21 22 23 23 22 20
5 8 8 20 18 11 11 8 38 33 39 36 19 12 16 50 42 15 23 25 26 26 23 22 22 19 16 14 12 12 14 16 19 21 21 19 16 17 17 19 22 22 22 22 23 22 22 21 19
7 8 16 5 18 11 8 18 37 42 39 6 20 20 14 37 36 15 14 23 25 22 18 19 21 22 20 18 16 14 14 16 19 22 23 23 21 20 20 20 21 23 24 24 25 25 25 23 21
6 8 20 17 21 24 8 25 32 36 58 71 35 35 21 26 29 18 23 18 15 12 14 18 21 22 23 24 23 21 20 19 20 22 25 26 27 26 25 24 24 25 27 28 28 29 30 30 28
6 6 13 5 14 18 32 36 26 25 38 36 43 43 43 43 37 32 34 32 20 8 8 19 23 26 28 28 28 28 28 28 27 26 26 28 29 30 30 30 29 29 30 32 33 34 36 38 37
7 7 20 27 54 49 48 66 19 12 33 30 29 35 45 48 51 49 45 41 35 27 12 6 17 28 32 34 34 36 35 36 36 34 32 32 32 33 34 35 35 35 35 37 39 40 42 44 44
16 31 20 17 20 22 19 24 58 55 20 21 24 32 43 50 50 48 43 39 33 30 30 23 12 18 26 33 38 42 43 43 43 43 41 40 39 39 39 38 38 39 39 40 42 45 46 47 49
26 27 46 59 67 68 68 55 42 47 25 24 30 41 49 49 47 44 43 39 35 32 31 29 28 17 23 28 28 33 44 51 50 49 49 49 48 47 45 43 43 42 43 43 43 46 49 52 53
41 61 38 34 43 34 42 33 14 29 23 28 32 41 48 50 47 38 40 40 38 35 32 32 28 27 25 21 34 33 35 40 48 55 57 56 56 56 53 52 50 49 47 44 44 48 50 54 57
62 48 31 28 5 10 4 27 24 17 18 29 35 39 45 50 48 49 43 39 37 36 39 32 29 30 27 24 21 28 43 38 42 45 47 56 62 63 62 61 59 57 54 50 50 51 54 56 58
21 16 14 12 8 12 3 9 15 14 19 32 35 36 41 49 51 49 45 39 33 28 29 33 36 32 29 29 27 24 22 33 42 45 45 44 47 58 65 67 68 64 63 60 58 57 59 59 61
11 20 20 7 28 5 7 14 8 15 23 33 35 38 37 38 45 51 52 49 47 39 31 24 26 31 33 28 25 25 18 13 23 35 40 44 46 48 53 62 69 70 71 70 67 66 64 63 64
18 15 11 10 17 33 39 27 15 12 19 21 25 28 29 35 42 45 48 49 49 49 47 42 34 25 25 30 29 21 10 7 14 20 29 35 42 45 47 51 56 60 68 74 75 73 72 70 69
25 27 29 9 3 15 25 22 12 10 12 17 19 24 25 27 25 31 37 42 46 50 53 56 51 47 34 28 26 30 22 5 6 14 28 37 38 41 46 48 52 55 62 63 69 74 75 77 74
33 43 17 10 10 12 13 15 7 7 6 6 11 19 21 23 25 26 28 33 41 46 50 52 53 53 52 46 42 37 30 20 20 14 13 17 26 36 41 49 53 53 55 58 60 63 65 71 67
17 25 20 17 17 16 19 5 5 6 3 5 8 15 21 25 28 33 37 41 43 43 43 44 48 49 49 48 45 40 33 29 22 21 23 20 18 20 19 37 47 55 59 62 59 63 66 67 63
13 12 23 37 13 9 11 7 9 6 5 6 9 14 22 28 34 38 39 41 45 47 45 44 40 45 50 49 46 45 45 47 47 38 31 27 21 17 19 17 30 28 41 46 62 62 63 63 67
12 28 30 15 10 13 10 6 8 4 11 10 12 13 18 26 28 29 31 34 37 39 45 46 46 44 45 47 48 46 44 42 43 42 40 29 25 19 18 16 14 17 22 24 21 26 27 28 42
32 27 15 8 5 4 7 7 6 13 12 9 12 15 17 16 17 19 22 24 30 36 43 47 49 47 47 48 49 48 46 45 41 41 44 47 43 35 29 25 20 23 23 25 23 26 29 27 24
12 14 8 6 5 4 4 7 8 16 17 21 28 20 17 12 9 9 12 18 25 32 40 44 46 46 44 47 49 48 46 45 47 48 46 45 45 46 44 41 34 29 25 23 26 32 36 46 59
16 5 9 10 9 6 2 10 2 12 21 23 22 20 16 12 9 4 2 10 18 25 31 36 39 41 41 44 48 48 45 43 43 44 45 45 46 45 43 41 40 41 40 35 28 32 34 32 35
10 8 5 11 4 5 6 5 10 12 16 21 21 21 21 18 14 8 4 0 8 17 26 31 32 34 37 41 43 45 43 44 44 43 42 43 44 46 46 44 43 41 40 41 39 38 38 36 35
3 16 6 2 11 9 6 9 11 28 28 25 25 28 26 24 20 16 11 6 4 10 16 20 26 32 35 38 41 41 41 41 41 42 42 44 45 45 44 43 44 43 43 43 42 42 41 38 36
10 6 9 8 1 6 4 8 9 35 34 31 36 33 31 28 19 15 13 12 8 6 10 15 21 27 30 35 37 37 39 40 40 41 42 43 45 47 49 48 45 43 42 42 44 43 43 43 41
4 11 11 7 10 3 1 7 3 16 42 42 39 36 34 25 21 18 14 13 10 3 4 12 18 22 27 31 32 34 35 37 39 41 42 44 46 47 47 46 46 47 48 46 45 44 44 43 43
Wind_Direction_500mb
335 336 357 243 219 57 78 70 316 15 60 10 82 89 89 50 22 83 140 158 169 168 159 155 155 158 161 163 162 164 168 167 167 164 163 160 154 150 150 151 156 160 161 161 155 150 144 140 134
342 9 168 257 112 131 99 5 360 21 7 263 68 85 62 64 32 50 133 158 167 166 155 153 155 157 158 161 162 162 168 168 169 167 167 162 159 156 156 159 163 165 166 164 160 154 150 147 141
3 66 55 79 54 59 335 345 313 287 32 81 109 51 39 348 9 42 184 161 166 162 152 150 153 154 156 161 162 161 163 170 172 170 165 163 160 160 161 164 168 172 170 166 162 156 153 151 150
69 74 57 83 97 48 26 338 311 284 61 60 116 71 75 24 26 10 140 162 166 157 149 149 149 150 155 159 159 163 166 169 170 167 163 163 164 167 168 169 174 177 177 170 164 162 163 161 155
103 57 75 83 82 74 35 26 47 74 77 54 81 81 75 23 26 63 123 159 167 158 151 150 147 151 153 157 158 163 167 168 167 165 165 167 172 178 177 176 178 181 182 179 175 173 172 170 166
113 86 109 104 87 80 60 32 60 56 53 44 69 81 62 26 37 40 102 155 163 160 155 154 153 156 158 161 161 167 174 175 174 175 175 176 180 182 186 190 189 190 189 189 190 188 184 181 177
118 92 120 123 107 77 29 35 38 57 44 16 25 62 46 46 55 66 116 151 160 165 161 164 166 169 174 180 184 182 184 188 191 191 191 193 194 193 196 198 200 201 200 199 201 203 198 196 194
121 93 145 169 137 99 86 85 64 47 35 112 48 36 13 34 65 61 117 147 157 165 171 184 187 186 190 196 203 211 208 204 203 205 207 209 210 210 211 212 211 212 213 212 210 212 212 212 214
123 93 169 155 149 139 128 102 69 79 75 63 71 64 43 58 81 106 97 106 127 147 191 207 208 210 207 207 212 214 223 225 223 220 219 221 222 222 222 223 222 220 221 222 221 220 221 224 227
90 123 165 53 111 101 72 87 105 87 75 56 51 60 65 68 77 79 75 72 83 111 230 242 237 228 225 228 226 224 226 230 233 235 234 233 232 232 232 229 229 230 228 228 229 228 229 230 232
79 107 107 83 117 108 97 65 60 91 55 40 25 30 53 63 68 67 62 58 55 49 18 281 252 256 251 242 240 237 236 234 237 238 240 243 242 240 239 238 236 235 235 235 235 235 236 237 238
111 57 92 132 121 111 79 85 69 66 74 57 40 46 54 57 56 54 52 51 49 43 38 26 319 250 249 252 253 255 248 243 244 243 244 244 247 248 248 247 246 246 244 242 241 241 243 244 245
105 95 80 100 94 90 97 81 84 57 54 62 56 58 57 58 56 52 46 40 37 35 30 23 19 352 266 251 252 256 258 259 255 252 251 251 250 252 254 255 253 253 252 251 249 249 248 248 249
115 106 99 85 91 89 92 58 86 30 48 60 57 54 54 53 48 46 42 36 27 21 20 14 9 4 3 299 262 254 264 262 264 265 262 257 257 257 256 258 259 259 259 258 257 256 254 253 252
120 106 104 31 27 123 303 38 37 26 56 63 60 54 53 51 48 44 38 32 27 20 9 2 0 352 346 345 334 283 262 264 267 270 266 268 266 263 262 260 261 263 265 263 260 260 258 257 255
115 98 124 29 17 17 90 92 25 34 65 65 64 62 56 52 53 51 43 39 34 24 13 3 356 353 341 332 327 324 308 277 273 276 278 276 272 271 265 264 265 264 265 266 265 264 263 263 262
18 139 114 122 23 127 103 134 39 43 63 66 59 55 54 54 51 50 49 43 36 31 27 14 356 349 351 354 339 325 319 325 290 291 289 284 280 273 271 271 270 271 270 268 268 268 268 269 269
160 124 75 79 22 89 97 116 109 87 79 68 58 52 50 50 47 44 45 44 43 37 32 25 19 3 351 354 2 356 319 282 282 273 275 282 283 274 274 275 278 278 274 271 270 270 270 270 271
108 108 109 94 94 65 95 117 119 112 95 77 54 47 48 57 56 45 42 39 36 34 31 27 24 22 13 2 353 359 4 359 313 289 286 278 274 267 268 270 271 277 282 279 275 273 272 272 273
125 123 106 91 81 88 137 114 115 125 113 83 63 59 58 64 74 63 51 41 40 34 28 26 27 26 25 23 17 11 4 352 325 313 303 324 296 279 268 265 270 275 281 280 279 278 276 275 271
126 147 160 138 118 72 141 115 198 179 162 129 90 86 78 77 79 73 69 62 53 44 35 26 24 27 29 27 22 16 8 7 358 337 313 322 309 323 293 273 268 274 274 277 282 280 277 274 271
122 142 136 138 146 154 208 178 221 193 211 164 148 109 91 91 83 78 75 66 58 50 42 37 28 23 23 25 27 28 24 16 11 7 353 330 328 322 305 310 293 285 268 260 267 262 267 272 271
128 135 130 138 107 139 192 226 142 190 210 189 170 145 113 97 85 78 67 63 55 48 42 38 34 34 30 25 24 24 27 29 21 13 16 12 13 351 327 330 335 302 307 290 291 280 287 319 270
132 110 80 73 92 212 172 223 208 187 192 177 179 173 147 124 103 84 67 57 48 39 35 35 35 34 30 29 27 24 20 18 13 11 8 8 14 13 13 13 359 333 302 301 307 313 323 345 336
134 144 126 161 190 222 141 191 256 190 179 170 170 173 167 156 130 94 58 39 31 28 27 30 32 32 29 28 27 26 25 20 17 12 10 6 2 4 11 9 5 2 351 334 322 306 302 305 303
160 172 164 170 184 147 157 228 256 190 168 157 164 168 181 188 190 184 54 25 21 17 17 25 27 27 27 25 23 25 27 26 23 19 13 10 7 5 2 0 359 358 4 1 345 323 316 305 299
160 179 99 107 46 176 201 268 250 174 172 187 196 203 210 202 190 199 213 300 7 9 13 17 22 24 24 22 24 27 27 28 27 23 19 18 13 7 3 1 359 354 349 348 350 348 347 343 321
158 141 143 78 153 212 210 265 218 192 192 196 203 210 206 203 208 212 204 204 271 347 7 12 21 23 23 25 27 26 26 25 23 19 17 13 10 7 6 5 1 356 352 349 345 340 336 333 331
141 161 74 102 72 175 192 242 222 194 188 187 196 197 195 198 200 201 199 206 238 310 1 20 22 24 28 27 24 21 20 18 14 11 9 6 2 360 359 360 359 354 351 349 345 342 336 334 331
136 165 162 158 186 79 65 272 290 201 182 182 189 195 195 201 205 193 191 203 211 237 32 27 22 25 25 22 18 13 9 5 2 360 357 356 355 354 354 353 350 347 344 344 343 339 336 332 327
Wind_Speed_850mb
11 11 5 4 6 1 5 8 4 15 6 7 12 29 29 24 10 12 20 28 38 36 33 31 31 30 29 31 32 32 32 34 36 31 27 27 27 29 32 32 35 35 30 22 22 22 24 27 29
7 6 1 1 1 9 6 9 12 13 7 5 16 17 28 17 25 11 26 22 39 34 31 27 28 27 25 26 27 31 32 31 31 28 26 27 27 29 30 28 30 31 27 25 23 24 26 28 28
4 6 2 6 5 7 5 16 21 10 22 9 12 28 16 23 18 6 10 26 43 34 26 24 26 24 23 22 22 26 29 29 27 26 26 26 26 26 24 23 26 26 26 26 24 24 23 25 26
1 3 10 9 27 18 9 21 15 7 19 28 22 24 23 44 16 17 22 31 41 33 26 26 24 20 19 19 20 22 24 26 26 27 26 25 23 22 21 21 22 23 24 25 25 24 23 23 22
6 6 8 10 23 13 21 25 27 19 19 34 29 25 22 48 29 15 11 37 35 31 28 26 23 19 16 16 17 19 20 22 25 26 25 21 18 18 20 20 22 22 22 22 24 24 23 22 21
4 7 10 12 16 14 25 39 39 35 32 30 35 28 21 37 39 24 13 35 32 29 26 24 22 19 16 13 13 14 16 19 22 23 21 18 15 17 19 20 21 21 21 21 22 23 23 22 20
5 8 8 20 18 11 11 8 38 33 39 36 19 12 16 50 42 15 23 25 26 26 23 22 22 19 16 14 12 12 14 16 19 21 21 19 16 17 17 19 22 22 22 22 23 22 22 21 19
7 8 16 5 18 11 8 18 37 42 39 6 20 20 14 37 36 15 14 23 25 22 18 19 21 22 20 18 16 14 14 16 19 22 23 23 21 20 20 20 21 23 24 24 25 25 25 23 21
6 8 20 17 21 24 8 25 32 36 58 71 35 35 21 26 29 18 23 18 15 12 14 18 21 22 23 24 23 21 20 19 20 22 25 26 27 26 25 24 24 25 27 28 28 29 30 30 28
6 6 13 5 14 18 32 36 26 25 38 36 43 43 43 43 37 32 34 32 20 8 8 19 23 26 28 28 28 28 28 28 27 26 26 28 29 30 30 30 29 29 30 32 33 34 36 38 37
7 7 20 27 54 49 48 66 19 12 33 30 29 35 45 48 51 49 45 41 35 27 12 6 17 28 32 34 34 36 35 36 36 34 32 32 32 33 34 35 35 35 35 37 39 40 42 44 44
16 31 20 17 20 22 19 24 58 55 20 21 24 32 43 50 50 48 43 39 33 30 30 23 12 18 26 33 38 42 43 43 43 43 41 40 39 39 39 38 38 39 39 40 42 45 46 47 49
26 27 46 59 67 68 68 55 42 47 25 24 30 41 49 49 47 44 43 39 35 32 31 29 28 17 23 28 28 33 44 51 50 49 49 49 48 47 45 43 43 42 43 43 43 46 49 52 53
41 61 38 34 43 34 42 33 14 29 23 28 32 41 48 50 47 38 40 40 38 35 32 32 28 27 25 21 34 33 35 40 48 55 57 56 56 56 53 52 50 49 47 44 44 48 50 54 57
62 48 31 28 5 10 4 27 24 17 18 29 35 39 45 50 48 49 43 39 37 36 39 32 29 30 27 24 21 28 43 38 42 45 47 56 62 63 62 61 59 57 54 50 50 51 54 56 58
21 16 14 12 8 12 3 9 15 14 19 32 35 36 41 49 51 49 45 39 33 28 29 33 36 32 29 29 27 24 22 33 42 45 45 44 47 58 65 67 68 64 63 60 58 57 59 59 61
11 20 20 7 28 5 7 14 8 15 23 33 35 38 37 38 45 51 52 49 47 39 31 24 26 31 33 28 25 25 18 13 23 35 40 44 46 48 53 62 69 70 71 70 67 66 64 63 64
18 15 11 10 17 33 39 27 15 12 19 21 25 28 29 35 42 45 48 49 49 49 47 42 34 25 25 30 29 21 10 7 14 20 29 35 42 45 47 51 56 60 68 74 75 73 72 70 69
25 27 29 9 3 15 25 22 12 10 12 17 19 24 25 27 25 31 37 42 46 50 53 56 51 47 34 28 26 30 22 5 6 14 28 37 38 41 46 48 52 55 62 63 69 74 75 77 74
33 43 17 10 10 12 13 15 7 7 6 6 11 19 21 23 25 26 28 33 41 46 50 52 53 53 52 46 42 37 30 20 20 14 13 17 26 36 41 49 53 53 55 58 60 63 65 71 67
17 25 20 17 17 16 19 5 5 6 3 5 8 15 21 25 28 33 37 41 43 43 43 44 48 49 49 48 45 40 33 29 22 21 23 20 18 20 19 37 47 55 59 62 59 63 66 67 63
13 12 23 37 13 9 11 7 9 6 5 6 9 14 22 28 34 38 39 41 45 47 45 44 40 45 50 49 46 45 45 47 47 38 31 27 21 17 19 17 30 28 41 46 62 62 63 63 67
12 28 30 15 10 13 10 6 8 4 11 10 12 13 18 26 28 29 31 34 37 39 45 46 46 44 45 47 48 46 44 42 43 42 40 29 25 19 18 16 14 17 22 24 21 26 27 28 42
32 27 15 8 5 4 7 7 6 13 12 9 12 15 17 16 17 19 22 24 30 36 43 47 49 47 47 48 49 48 46 45 41 41 44 47 43 35 29 25 20 23 23 25 23 26 29 27 24
12 14 8 6 5 4 4 7 8 16 17 21 28 20 17 12 9 9 12 18 25 32 40 44 46 46 44 47 49 48 46 45 47 48 46 45 45 46 44 41 34 29 25 23 26 32 36 46 59
16 5 9 10 9 6 2 10 2 12 21 23 22 20 16 12 9 4 2 10 18 25 31 36 39 41 41 44 48 48 45 43 43 44 45 45 46 45 43 41 40 41 40 35 28 32 34 32 35
10 8 5 11 4 5 6 5 10 12 16 21 21 21 21 18 14 8 4 0 8 17 26 31 32 34 37 41 43 45 43 44 44 43 42 43 44 46 46 44 43 41 40 41 39 38 38 36 35
3 16 6 2 11 9 6 9 11 28 28 25 25 28 26 24 20 16 11 6 4 10 16 20 26 32 35 38 41 41 41 41 41 42 42 44 45 45 44 43 44 43 43 43 42 42 41 38 36
10 6 9 8 1 6 4 8 9 35 34 31 36 33 31 28 19 15 13 12 8 6 10 15 21 27 30 35 37 37 39 40 40 41 42 43 45 47 49 48 45 43 42 42 44 43 43 43 41
4 11 11 7 10 3 1 7 3 16 42 42 39 36 34 25 21 18 14 13 10 3 4 12 18 22 27 31 32 34 35 37 39 41 42 44 46 47 47 46 46 47 48 46 45 44 44 43 43
Wind_Direction_850mb
335 336 357 243 219 57 78 70 316 15 60 10 82 89 89 50 22 83 140 158 169 168 159 155 155 158 161 163 162 164 168 167 167 164 163 160 154 150 150 151 156 160 161 161 155 150 144 140 134
342 9 168 257 112 131 99 5 360 21 7 263 68 85 62 64 32 50 133 158 167 166 155 153 155 157 158 161 162 162 168 168 169 167 167 162 159 156 156 159 163 165 166 164 160 154 150 147 141
3 66 55 79 54 59 335 345 313 287 32 81 109 51 39 348 9 42 184 161 166 162 152 150 153 154 156 161 162 161 163 170 172 170 165 163 160 160 161 164 168 172 170 166 162 156 153 151 150
69 74 57 83 97 48 26 338 311 284 61 60 116 71 75 24 26 10 140 162 166 157 149 149 149 150 155 159 159 163 166 169 170 167 163 163 164 167 168 169 174 177 177 170 164 162 163 161 155
103 57 75 83 82 74 35 26 47 74 77 54 81 81 75 23 26 63 123 159 167 158 151 150 147 151 153 157 158 163 167 168 167 165 165 167 172 178 177 176 178 181 182 179 175 173 172 170 166
113 86 109 104 87 80 60 32 60 56 53 44 69 81 62 26 37 40 102 155 163 160 155 154 153 156 158 161 161 167 174 175 174 175 175 176 180 182 186 190 189 190 189 189 190 188 184 181 177
118 92 120 123 107 77 29 35 38 57 44 16 25 62 46 46 55 66 116 151 160 165 161 164 166 169 174 180 184 182 184 188 191 191 191 193 194 193 196 198 200 201 200 199 201 203 198 196 194
121 93 145 169 137 99 86 85 64 47 35 112 48 36 13 34 65 61 117 147 157 165 171 184 187 186 190 196 203 211 208 204 203 205 207 209 210 210 211 212 211 212 213 212 210 212 212 212 214
123 93 169 155 149 139 128 102 69 79 75 63 71 64 43 58 81 106 97 106 127 147 191 207 208 210 207 207 212 214 223 225 223 220 219 221 222 222 222 223 222 220 221 222 221 220 221 224 227
90 123 165 53 111 101 72 87 105 87 75 56 51 60 65 68 77 79 75 72 83 111 230 242 237 228 225 228 226 224 226 230 233 235 234 233 232 232 232 229 229 230 228 228 229 228 229 230 232
79 107 107 83 117 108 97 65 60 91 55 40 25 30 53 63 68 67 62 58 55 49 18 281 252 256 251 242 240 237 236 234 237 238 240 243 242 240 239 238 236 235 235 235 235 235 236 237 238
111 57 92 132 121 111 79 85 69 66 74 57 40 46 54 57 56 54 52 51 49 43 38 26 319 250 249 252 253 255 248 243 244 243 244 244 247 248 248 247 246 246 244 242 241 241 243 244 245
105 95 80 100 94 90 97 81 84 57 54 62 56 58 57 58 56 52 46 40 37 35 30 23 19 352 266 251 252 256 258 259 255 252 251 251 250 252 254 255 253 253 252 251 249 249 248 248 249
115 106 99 85 91 89 92 58 86 30 48 60 57 54 54 53 48 46 42 36 27 21 20 14 9 4 3 299 262 254 264 262 264 265 262 257 257 257 256 258 259 259 259 258 257 256 254 253 252
120 106 104 31 27 123 303 38 37 26 56 63 60 54 53 51 48 44 38 32 27 20 9 2 0 352 346 345 334 283 262 264 267 270 266 268 266 263 262 260 261 263 265 263 260 260 258 257 255
115 98 124 29 17 17 90 92 25 34 65 65 64 62 56 52 53 51 43 39 34 24 13 3 356 353 341 332 327 324 308 277 273 276 278 276 272 271 265 264 265 264 265 266 265 264 263 263 262
18 139 114 122 23 127 103 134 39 43 63 66 59 55 54 54 51 50 49 43 36 31 27 14 356 349 351 354 339 325 319 325 290 291 289 284 280 273 271 271 270 271 270 268 268 268 268 269 269
160 124 75 79 22 89 97 116 109 87 79 68 58 52 50 50 47 44 45 44 43 37 32 25 19 3 351 354 2 356 319 282 282 273 275 282 283 274 274 275 278 278 274 271 270 270 270 270 271
108 108 109 94 94 65 95 117 119 112 95 77 54 47 48 57 56 45 42 39 36 34 31 27 24 22 13 2 353 359 4 359 313 289 286 278 274 267 268 270 271 277 282 279 275 273 272 272 273
125 123 106 91 81 88 137 114 115 125 113 83 63 59 58 64 74 63 51 41 40 34 28 26 27 26 25 23 17 11 4 352 325 313 303 324 296 279 268 265 270 275 281 280 279 278 276 275 271
126 147 160 138 118 72 141 115 198 179 162 129 90 86 78 77 79 73 69 62 53 44 35 26 24 27 29 27 22 16 8 7 358 337 313 322 309 323 293 273 268 274 274 277 282 280 277 274 271
122 142 136 138 146 154 208 178 221 193 211 164 148 109 91 91 83 78 75 66 58 50 42 37 28 23 23 25 27 28 24 16 11 7 353 330 328 322 305 310 293 285 268 260 267 262 267 272 271
128 135 130 138 107 139 192 226 142 190 210 189 170 145 113 97 85 78 67 63 55 48 42 38 34 34 30 25 24 24 27 29 21 13 16 12 13 351 327 330 335 302 307 290 291 280 287 319 270
132 110 80 73 92 212 172 223 208 187 192 177 179 173 147 124 103 84 67 57 48 39 35 35 35 34 30 29 27 24 20 18 13 11 8 8 14 13 13 13 359 333 302 301 307 313 323 345 336
134 144 126 161 190 222 141 191 256 190 179 170 170 173 167 156 130 94 58 39 31 28 27 30 32 32 29 28 27 26 25 20 17 12 10 6 2 4 11 9 5 2 351 334 322 306 302 305 303
160 172 164 170 184 147 157 228 256 190 168 157 164 168 181 188 190 184 54 25 21 17 17 25 27 27 27 25 23 25 27 26 23 19 13 10 7 5 2 0 359 358 4 1 345 323 316 305 299
160 179 99 107 46 176 201 268 250 174 172 187 196 203 210 202 190 199 213 300 7 9 13 17 22 24 24 22 24 27 27 28 27 23 19 18 13 7 3 1 359 354 349 348 350 348 347 343 321
158 141 143 78 153 212 210 265 218 192 192 196 203 210 206 203 208 212 204 204 271 347 7 12 21 23 23 25 27 26 26 25 23 19 17 13 10 7 6 5 1 356 352 349 345 340 336 333 331
141 161 74 102 72 175 192 242 222 194 188 187 196 197 195 198 200 201 199 206 238 310 1 20 22 24 28 27 24 21 20 18 14 11 9 6 2 360 359 360 359 354 351 349 345 342 336 334 331
136 165 162 158 186 79 65 272 290 201 182 182 189 195 195 201 205 193 191 203 211 237 32 27 22 25 25 22 18 13 9 5 2 360 357 356 355 354 354 353 350 347 344 344 343 339 336 332 327